Year,Month,Day,Hour,Minute,Value (Times are PST for temperature in C)
2017,04,18,00,00,9.00
2017,04,18,00,01,9.00
2017,04,18,00,02,9.00
2017,04,18,00,03,9.00
2017,04,18,00,04,9.00
2017,04,18,00,05,9.00
2017,04,18,00,06,9.00
2017,04,18,00,07,9.00
2017,04,18,00,08,9.10
2017,04,18,00,09,9.10
2017,04,18,00,10,9.10
2017,04,18,00,11,9.10
2017,04,18,00,12,9.10
2017,04,18,00,13,9.10
2017,04,18,00,14,9.10
2017,04,18,00,15,9.10
2017,04,18,00,16,9.10
2017,04,18,00,17,9.10
2017,04,18,00,18,9.00
2017,04,18,00,19,9.00
2017,04,18,00,20,9.00
2017,04,18,00,21,9.00
2017,04,18,00,22,9.00
2017,04,18,00,23,9.00
2017,04,18,00,24,9.00
2017,04,18,00,25,9.00
2017,04,18,00,26,9.00
2017,04,18,00,27,9.00
2017,04,18,00,28,9.00
2017,04,18,00,29,9.00
2017,04,18,00,30,9.00
2017,04,18,00,31,9.00
2017,04,18,00,32,9.00
2017,04,18,00,33,9.10
2017,04,18,00,34,9.10
2017,04,18,00,35,9.10
2017,04,18,00,36,9.10
2017,04,18,00,37,9.10
2017,04,18,00,38,9.10
2017,04,18,00,39,9.10
2017,04,18,00,40,9.10
2017,04,18,00,41,9.10
2017,04,18,00,42,9.10
2017,04,18,00,43,9.10
2017,04,18,00,44,9.10
2017,04,18,00,45,9.10
2017,04,18,00,46,9.10
2017,04,18,00,47,9.10
2017,04,18,00,48,9.10
2017,04,18,00,49,9.10
2017,04,18,00,50,9.10
2017,04,18,00,51,9.10
2017,04,18,00,52,9.10
2017,04,18,00,53,9.10
2017,04,18,00,54,9.10
2017,04,18,00,55,9.10
2017,04,18,00,56,9.10
2017,04,18,00,57,9.10
2017,04,18,00,58,9.10
2017,04,18,00,59,9.10
2017,04,18,01,00,9.10
2017,04,18,01,01,9.10
2017,04,18,01,02,9.10
2017,04,18,01,03,9.10
2017,04,18,01,04,9.10
2017,04,18,01,05,9.00
2017,04,18,01,06,9.00
2017,04,18,01,07,9.00
2017,04,18,01,08,9.00
2017,04,18,01,09,9.00
2017,04,18,01,10,9.00
2017,04,18,01,11,9.00
2017,04,18,01,12,8.90
2017,04,18,01,13,8.90
2017,04,18,01,14,8.90
2017,04,18,01,15,8.90
2017,04,18,01,16,8.80
2017,04,18,01,17,8.80
2017,04,18,01,18,8.80
2017,04,18,01,19,8.80
2017,04,18,01,20,8.70
2017,04,18,01,21,8.70
2017,04,18,01,22,8.70
2017,04,18,01,23,8.70
2017,04,18,01,24,8.70
2017,04,18,01,25,8.70
2017,04,18,01,26,8.70
2017,04,18,01,27,8.70
2017,04,18,01,28,8.60
2017,04,18,01,29,8.60
2017,04,18,01,30,8.60
2017,04,18,01,31,8.60
2017,04,18,01,32,8.60
2017,04,18,01,33,8.60
2017,04,18,01,34,8.50
2017,04,18,01,35,8.50
2017,04,18,01,36,8.50
2017,04,18,01,37,8.50
2017,04,18,01,38,8.50
2017,04,18,01,39,8.40
2017,04,18,01,40,8.40
2017,04,18,01,41,8.40
2017,04,18,01,42,8.40
2017,04,18,01,43,8.40
2017,04,18,01,44,8.40
2017,04,18,01,45,8.30
2017,04,18,01,46,8.30
2017,04,18,01,47,8.30
2017,04,18,01,48,8.30
2017,04,18,01,49,8.30
2017,04,18,01,50,8.30
2017,04,18,01,51,8.30
2017,04,18,01,52,8.30
2017,04,18,01,53,8.30
2017,04,18,01,54,8.20
2017,04,18,01,55,8.20
2017,04,18,01,56,8.20
2017,04,18,01,57,8.20
2017,04,18,01,58,8.20
2017,04,18,01,59,8.20
2017,04,18,02,00,8.20
2017,04,18,02,01,8.20
2017,04,18,02,02,8.20
2017,04,18,02,03,8.20
2017,04,18,02,04,8.20
2017,04,18,02,05,8.20
2017,04,18,02,06,8.20
2017,04,18,02,07,8.20
2017,04,18,02,08,8.10
2017,04,18,02,09,8.10
2017,04,18,02,10,8.10
2017,04,18,02,11,8.10
2017,04,18,02,12,8.10
2017,04,18,02,13,8.00
2017,04,18,02,14,8.00
2017,04,18,02,15,8.00
2017,04,18,02,16,8.00
2017,04,18,02,17,8.00
2017,04,18,02,18,8.00
2017,04,18,02,19,8.00
2017,04,18,02,20,8.00
2017,04,18,02,21,7.90
2017,04,18,02,22,7.90
2017,04,18,02,23,7.90
2017,04,18,02,24,7.90
2017,04,18,02,25,7.90
2017,04,18,02,26,7.90
2017,04,18,02,27,7.90
2017,04,18,02,28,7.90
2017,04,18,02,29,7.90
2017,04,18,02,30,7.90
2017,04,18,02,31,7.80
2017,04,18,02,32,7.80
2017,04,18,02,33,7.80
2017,04,18,02,34,7.80
2017,04,18,02,35,7.80
2017,04,18,02,36,7.80
2017,04,18,02,37,7.80
2017,04,18,02,38,7.80
2017,04,18,02,39,7.80
2017,04,18,02,40,7.80
2017,04,18,02,41,7.80
2017,04,18,02,42,7.80
2017,04,18,02,43,7.80
2017,04,18,02,44,7.80
2017,04,18,02,45,7.80
2017,04,18,02,46,7.80
2017,04,18,02,47,7.80
2017,04,18,02,48,7.80
2017,04,18,02,49,7.80
2017,04,18,02,50,7.80
2017,04,18,02,51,7.80
2017,04,18,02,52,7.80
2017,04,18,02,53,7.80
2017,04,18,02,54,7.90
2017,04,18,02,55,7.90
2017,04,18,02,56,7.90
2017,04,18,02,57,7.90
2017,04,18,02,58,7.90
2017,04,18,02,59,7.90
2017,04,18,03,00,7.90
2017,04,18,03,01,7.90
2017,04,18,03,02,7.90
2017,04,18,03,03,7.90
2017,04,18,03,04,7.90
2017,04,18,03,05,8.00
2017,04,18,03,06,8.00
2017,04,18,03,07,8.00
2017,04,18,03,08,8.10
2017,04,18,03,09,8.10
2017,04,18,03,10,8.10
2017,04,18,03,11,8.10
2017,04,18,03,12,8.10
2017,04,18,03,13,8.10
2017,04,18,03,14,8.10
2017,04,18,03,15,8.10
2017,04,18,03,16,8.10
2017,04,18,03,17,8.10
2017,04,18,03,18,8.10
2017,04,18,03,19,8.10
2017,04,18,03,20,8.00
2017,04,18,03,21,8.00
2017,04,18,03,22,8.00
2017,04,18,03,23,8.00
2017,04,18,03,24,7.90
2017,04,18,03,25,7.90
2017,04,18,03,26,7.90
2017,04,18,03,27,7.90
2017,04,18,03,28,7.80
2017,04,18,03,29,7.80
2017,04,18,03,30,7.80
2017,04,18,03,31,7.80
2017,04,18,03,32,7.80
2017,04,18,03,33,7.80
2017,04,18,03,34,7.80
2017,04,18,03,35,7.70
2017,04,18,03,36,7.70
2017,04,18,03,37,7.70
2017,04,18,03,38,7.70
2017,04,18,03,39,7.70
2017,04,18,03,40,7.70
2017,04,18,03,41,7.70
2017,04,18,03,42,7.70
2017,04,18,03,43,7.70
2017,04,18,03,44,7.70
2017,04,18,03,45,7.60
2017,04,18,03,46,7.60
2017,04,18,03,47,7.60
2017,04,18,03,48,7.60
2017,04,18,03,49,7.60
2017,04,18,03,50,7.60
2017,04,18,03,51,7.60
2017,04,18,03,52,7.60
2017,04,18,03,53,7.60
2017,04,18,03,54,7.60
2017,04,18,03,55,7.60
2017,04,18,03,56,7.60
2017,04,18,03,57,7.60
2017,04,18,03,58,7.60
2017,04,18,03,59,7.60
2017,04,18,04,00,7.60
2017,04,18,04,01,7.60
2017,04,18,04,02,7.60
2017,04,18,04,03,7.60
2017,04,18,04,04,7.60
2017,04,18,04,05,7.60
2017,04,18,04,06,7.60
2017,04,18,04,07,7.60
2017,04,18,04,08,7.60
2017,04,18,04,09,7.60
2017,04,18,04,10,7.60
2017,04,18,04,11,7.60
2017,04,18,04,12,7.60
2017,04,18,04,13,7.70
2017,04,18,04,14,7.70
2017,04,18,04,15,7.70
2017,04,18,04,16,7.70
2017,04,18,04,17,7.70
2017,04,18,04,18,7.70
2017,04,18,04,19,7.70
2017,04,18,04,20,7.70
2017,04,18,04,21,7.70
2017,04,18,04,22,7.70
2017,04,18,04,23,7.70
2017,04,18,04,24,7.70
2017,04,18,04,25,7.70
2017,04,18,04,26,7.70
2017,04,18,04,27,7.70
2017,04,18,04,28,7.70
2017,04,18,04,29,7.70
2017,04,18,04,30,7.70
2017,04,18,04,31,7.70
2017,04,18,04,32,7.70
2017,04,18,04,33,7.70
2017,04,18,04,34,7.70
2017,04,18,04,35,7.70
2017,04,18,04,36,7.70
2017,04,18,04,37,7.80
2017,04,18,04,38,7.80
2017,04,18,04,39,7.80
2017,04,18,04,40,7.80
2017,04,18,04,41,7.80
2017,04,18,04,42,7.80
2017,04,18,04,43,7.80
2017,04,18,04,44,7.80
2017,04,18,04,45,7.80
2017,04,18,04,46,7.80
2017,04,18,04,47,7.80
2017,04,18,04,48,7.80
2017,04,18,04,49,7.80
2017,04,18,04,50,7.80
2017,04,18,04,51,7.80
2017,04,18,04,52,7.80
2017,04,18,04,53,7.80
2017,04,18,04,54,7.80
2017,04,18,04,55,7.80
2017,04,18,04,56,7.80
2017,04,18,04,57,7.80
2017,04,18,04,58,7.80
2017,04,18,04,59,7.80
2017,04,18,05,00,7.80
2017,04,18,05,01,7.80
2017,04,18,05,02,7.80
2017,04,18,05,03,7.80
2017,04,18,05,04,7.80
2017,04,18,05,05,7.80
2017,04,18,05,06,7.80
2017,04,18,05,07,7.80
2017,04,18,05,08,7.80
2017,04,18,05,09,7.80
2017,04,18,05,10,7.80
2017,04,18,05,11,7.80
2017,04,18,05,12,7.80
2017,04,18,05,13,7.80
2017,04,18,05,14,7.80
2017,04,18,05,15,7.80
2017,04,18,05,16,7.80
2017,04,18,05,17,7.80
2017,04,18,05,18,7.80
2017,04,18,05,19,7.80
2017,04,18,05,20,7.80
2017,04,18,05,21,7.80
2017,04,18,05,22,7.80
2017,04,18,05,23,7.80
2017,04,18,05,24,7.80
2017,04,18,05,25,7.80
2017,04,18,05,26,7.80
2017,04,18,05,27,7.80
2017,04,18,05,28,7.80
2017,04,18,05,29,7.80
2017,04,18,05,30,7.80
2017,04,18,05,31,7.80
2017,04,18,05,32,7.80
2017,04,18,05,33,7.80
2017,04,18,05,34,7.80
2017,04,18,05,35,7.80
2017,04,18,05,36,7.80
2017,04,18,05,37,7.80
2017,04,18,05,38,7.80
2017,04,18,05,39,7.80
2017,04,18,05,40,7.80
2017,04,18,05,41,7.80
2017,04,18,05,42,7.80
2017,04,18,05,43,7.80
2017,04,18,05,44,7.80
2017,04,18,05,45,7.80
2017,04,18,05,46,7.80
2017,04,18,05,47,7.80
2017,04,18,05,48,7.80
2017,04,18,05,49,7.90
2017,04,18,05,50,7.90
2017,04,18,05,51,7.90
2017,04,18,05,52,7.90
2017,04,18,05,53,7.90
2017,04,18,05,54,7.90
2017,04,18,05,55,7.90
2017,04,18,05,56,7.90
2017,04,18,05,57,7.90
2017,04,18,05,58,7.90
2017,04,18,05,59,7.90
2017,04,18,06,00,7.90
2017,04,18,06,01,7.90
2017,04,18,06,02,7.90
2017,04,18,06,03,7.90
2017,04,18,06,04,7.90
2017,04,18,06,05,7.90
2017,04,18,06,06,7.90
2017,04,18,06,07,7.90
2017,04,18,06,08,7.90
2017,04,18,06,09,7.90
2017,04,18,06,10,7.90
2017,04,18,06,11,7.90
2017,04,18,06,12,7.90
2017,04,18,06,13,7.90
2017,04,18,06,14,7.90
2017,04,18,06,15,7.90
2017,04,18,06,16,7.90
2017,04,18,06,17,7.90
2017,04,18,06,18,7.90
2017,04,18,06,19,7.90
2017,04,18,06,20,7.90
2017,04,18,06,21,7.90
2017,04,18,06,22,7.90
2017,04,18,06,23,8.00
2017,04,18,06,24,8.00
2017,04,18,06,25,8.00
2017,04,18,06,26,8.00
2017,04,18,06,27,8.00
2017,04,18,06,28,8.00
2017,04,18,06,29,8.00
2017,04,18,06,30,8.00
2017,04,18,06,31,8.00
2017,04,18,06,32,8.00
2017,04,18,06,33,8.10
2017,04,18,06,34,8.10
2017,04,18,06,35,8.10
2017,04,18,06,36,8.10
2017,04,18,06,37,8.10
2017,04,18,06,38,8.10
2017,04,18,06,39,8.10
2017,04,18,06,40,8.10
2017,04,18,06,41,8.10
2017,04,18,06,42,8.10
2017,04,18,06,43,8.10
2017,04,18,06,44,8.10
2017,04,18,06,45,8.10
2017,04,18,06,46,8.10
2017,04,18,06,47,8.10
2017,04,18,06,48,8.10
2017,04,18,06,49,8.10
2017,04,18,06,50,8.10
2017,04,18,06,51,8.10
2017,04,18,06,52,8.10
2017,04,18,06,53,8.10
2017,04,18,06,54,8.10
2017,04,18,06,55,8.10
2017,04,18,06,56,8.10
2017,04,18,06,57,8.10
2017,04,18,06,58,8.10
2017,04,18,06,59,8.10
2017,04,18,07,00,8.10
2017,04,18,07,01,8.20
2017,04,18,07,02,8.20
2017,04,18,07,03,8.20
2017,04,18,07,04,8.20
2017,04,18,07,05,8.20
2017,04,18,07,06,8.20
2017,04,18,07,07,8.20
2017,04,18,07,08,8.20
2017,04,18,07,09,8.20
2017,04,18,07,10,8.20
2017,04,18,07,11,8.20
2017,04,18,07,12,8.20
2017,04,18,07,13,8.20
2017,04,18,07,14,8.20
2017,04,18,07,15,8.20
2017,04,18,07,16,8.20
2017,04,18,07,17,8.20
2017,04,18,07,18,8.20
2017,04,18,07,19,8.20
2017,04,18,07,20,8.30
2017,04,18,07,21,8.30
2017,04,18,07,22,8.20
2017,04,18,07,23,8.20
2017,04,18,07,24,8.20
2017,04,18,07,25,8.20
2017,04,18,07,26,8.20
2017,04,18,07,27,8.20
2017,04,18,07,28,8.20
2017,04,18,07,29,8.20
2017,04,18,07,30,8.20
2017,04,18,07,31,8.20
2017,04,18,07,32,8.20
2017,04,18,07,33,8.20
2017,04,18,07,34,8.20
2017,04,18,07,35,8.30
2017,04,18,07,36,8.30
2017,04,18,07,37,8.30
2017,04,18,07,38,8.30
2017,04,18,07,39,8.30
2017,04,18,07,40,8.40
2017,04,18,07,41,8.40
2017,04,18,07,42,8.50
2017,04,18,07,43,8.60
2017,04,18,07,44,8.70
2017,04,18,07,45,8.70
2017,04,18,07,46,8.70
2017,04,18,07,47,8.80
2017,04,18,07,48,8.80
2017,04,18,07,49,8.90
2017,04,18,07,50,8.90
2017,04,18,07,51,9.00
2017,04,18,07,52,9.20
2017,04,18,07,53,9.40
2017,04,18,07,54,9.60
2017,04,18,07,55,9.70
2017,04,18,07,56,9.90
2017,04,18,07,57,10.00
2017,04,18,07,58,10.10
2017,04,18,07,59,10.10
2017,04,18,08,00,10.20
2017,04,18,08,01,10.20
2017,04,18,08,02,10.20
2017,04,18,08,03,10.20
2017,04,18,08,04,10.10
2017,04,18,08,05,10.10
2017,04,18,08,06,10.20
2017,04,18,08,07,10.20
2017,04,18,08,08,10.30
2017,04,18,08,09,10.40
2017,04,18,08,10,10.60
2017,04,18,08,11,10.60
2017,04,18,08,12,10.70
2017,04,18,08,13,10.80
2017,04,18,08,14,10.80
2017,04,18,08,15,10.90
2017,04,18,08,16,11.10
2017,04,18,08,17,11.10
2017,04,18,08,18,11.20
2017,04,18,08,19,11.30
2017,04,18,08,20,11.40
2017,04,18,08,21,11.60
2017,04,18,08,22,11.60
2017,04,18,08,23,11.60
2017,04,18,08,24,11.70
2017,04,18,08,25,11.70
2017,04,18,08,26,11.60
2017,04,18,08,27,11.60
2017,04,18,08,28,11.60
2017,04,18,08,29,11.50
2017,04,18,08,30,11.40
2017,04,18,08,31,11.40
2017,04,18,08,32,11.30
2017,04,18,08,33,11.30
2017,04,18,08,34,11.30
2017,04,18,08,35,11.20
2017,04,18,08,36,11.20
2017,04,18,08,37,11.20
2017,04,18,08,38,11.10
2017,04,18,08,39,11.10
2017,04,18,08,40,11.20
2017,04,18,08,41,11.20
2017,04,18,08,42,11.30
2017,04,18,08,43,11.40
2017,04,18,08,44,11.60
2017,04,18,08,45,11.60
2017,04,18,08,46,11.70
2017,04,18,08,47,11.70
2017,04,18,08,48,11.70
2017,04,18,08,49,11.70
2017,04,18,08,50,11.70
2017,04,18,08,51,11.70
2017,04,18,08,52,11.60
2017,04,18,08,53,11.50
2017,04,18,08,54,11.30
2017,04,18,08,55,11.10
2017,04,18,08,56,11.10
2017,04,18,08,57,11.10
2017,04,18,08,58,11.10
2017,04,18,08,59,11.10
2017,04,18,09,00,11.00
2017,04,18,09,01,10.90
2017,04,18,09,02,10.80
2017,04,18,09,03,10.80
2017,04,18,09,04,10.80
2017,04,18,09,05,10.80
2017,04,18,09,06,10.70
2017,04,18,09,07,10.60
2017,04,18,09,08,10.60
2017,04,18,09,09,10.70
2017,04,18,09,10,10.70
2017,04,18,09,11,10.60
2017,04,18,09,12,10.50
2017,04,18,09,13,10.40
2017,04,18,09,14,10.40
2017,04,18,09,15,10.40
2017,04,18,09,16,10.40
2017,04,18,09,17,10.40
2017,04,18,09,18,10.40
2017,04,18,09,19,10.60
2017,04,18,09,20,10.60
2017,04,18,09,21,10.60
2017,04,18,09,22,10.70
2017,04,18,09,23,10.80
2017,04,18,09,24,10.90
2017,04,18,09,25,10.90
2017,04,18,09,26,10.90
2017,04,18,09,27,10.90
2017,04,18,09,28,11.00
2017,04,18,09,29,11.10
2017,04,18,09,30,11.10
2017,04,18,09,31,11.10
2017,04,18,09,32,11.10
2017,04,18,09,33,11.20
2017,04,18,09,34,11.40
2017,04,18,09,35,11.50
2017,04,18,09,36,11.70
2017,04,18,09,37,11.80
2017,04,18,09,38,11.80
2017,04,18,09,39,11.80
2017,04,18,09,40,11.90
2017,04,18,09,41,12.00
2017,04,18,09,42,12.00
2017,04,18,09,43,12.10
2017,04,18,09,44,12.30
2017,04,18,09,45,12.30
2017,04,18,09,46,12.40
2017,04,18,09,47,12.40
2017,04,18,09,48,12.40
2017,04,18,09,49,12.30
2017,04,18,09,50,12.30
2017,04,18,09,51,12.20
2017,04,18,09,52,12.20
2017,04,18,09,53,12.30
2017,04,18,09,54,12.30
2017,04,18,09,55,12.50
2017,04,18,09,56,12.50
2017,04,18,09,57,12.50
2017,04,18,09,58,12.50
2017,04,18,09,59,12.50
2017,04,18,10,00,12.50
2017,04,18,10,01,12.50
2017,04,18,10,02,12.50
2017,04,18,10,03,12.60
2017,04,18,10,04,12.50
2017,04,18,10,05,12.50
2017,04,18,10,06,12.60
2017,04,18,10,07,12.70
2017,04,18,10,08,12.80
2017,04,18,10,09,12.80
2017,04,18,10,10,12.80
2017,04,18,10,11,12.80
2017,04,18,10,12,12.80
2017,04,18,10,13,12.70
2017,04,18,10,14,12.40
2017,04,18,10,15,12.00
2017,04,18,10,16,11.80
2017,04,18,10,17,11.70
2017,04,18,10,18,11.60
2017,04,18,10,19,11.40
2017,04,18,10,20,11.40
2017,04,18,10,21,11.40
2017,04,18,10,22,11.30
2017,04,18,10,23,11.30
2017,04,18,10,24,11.20
2017,04,18,10,25,11.10
2017,04,18,10,26,11.00
2017,04,18,10,27,10.90
2017,04,18,10,28,11.10
2017,04,18,10,29,11.20
2017,04,18,10,30,11.20
2017,04,18,10,31,11.20
2017,04,18,10,32,11.10
2017,04,18,10,33,11.10
2017,04,18,10,34,11.20
2017,04,18,10,35,11.30
2017,04,18,10,36,11.40
2017,04,18,10,37,11.40
2017,04,18,10,38,11.40
2017,04,18,10,39,11.30
2017,04,18,10,40,11.20
2017,04,18,10,41,11.20
2017,04,18,10,42,11.20
2017,04,18,10,43,11.30
2017,04,18,10,44,11.30
2017,04,18,10,45,11.40
2017,04,18,10,46,11.40
2017,04,18,10,47,11.40
2017,04,18,10,48,11.40
2017,04,18,10,49,11.40
2017,04,18,10,50,11.40
2017,04,18,10,51,11.40
2017,04,18,10,52,11.40
2017,04,18,10,53,11.40
2017,04,18,10,54,11.40
2017,04,18,10,55,11.40
2017,04,18,10,56,11.40
2017,04,18,10,57,11.50
2017,04,18,10,58,11.60
2017,04,18,10,59,11.60
2017,04,18,11,00,11.80
2017,04,18,11,01,11.80
2017,04,18,11,02,11.90
2017,04,18,11,03,11.90
2017,04,18,11,04,11.80
2017,04,18,11,05,11.70
2017,04,18,11,06,11.60
2017,04,18,11,07,11.60
2017,04,18,11,08,11.60
2017,04,18,11,09,11.60
2017,04,18,11,10,11.60
2017,04,18,11,11,11.80
2017,04,18,11,12,11.90
2017,04,18,11,13,12.00
2017,04,18,11,14,12.10
2017,04,18,11,15,12.20
2017,04,18,11,16,12.30
2017,04,18,11,17,12.30
2017,04,18,11,18,12.30
2017,04,18,11,19,12.30
2017,04,18,11,20,12.30
2017,04,18,11,21,12.40
2017,04,18,11,22,12.50
2017,04,18,11,23,12.50
2017,04,18,11,24,12.60
2017,04,18,11,25,12.70
2017,04,18,11,26,12.80
2017,04,18,11,27,12.90
2017,04,18,11,28,13.00
2017,04,18,11,29,13.10
2017,04,18,11,30,13.20
2017,04,18,11,31,13.20
2017,04,18,11,32,13.40
2017,04,18,11,33,13.50
2017,04,18,11,34,13.50
2017,04,18,11,35,13.50
2017,04,18,11,36,13.50
2017,04,18,11,37,13.40
2017,04,18,11,38,13.30
2017,04,18,11,39,13.30
2017,04,18,11,40,13.30
2017,04,18,11,41,13.30
2017,04,18,11,42,13.30
2017,04,18,11,43,13.20
2017,04,18,11,44,13.00
2017,04,18,11,45,12.80
2017,04,18,11,46,12.80
2017,04,18,11,47,12.80
2017,04,18,11,48,12.80
2017,04,18,11,49,12.80
2017,04,18,11,50,12.80
2017,04,18,11,51,12.80
2017,04,18,11,52,12.70
2017,04,18,11,53,12.50
2017,04,18,11,54,12.30
2017,04,18,11,55,12.30
2017,04,18,11,56,12.30
2017,04,18,11,57,12.40
2017,04,18,11,58,12.50
2017,04,18,11,59,12.60
2017,04,18,12,00,12.60
2017,04,18,12,01,12.70
2017,04,18,12,02,12.70
2017,04,18,12,03,12.70
2017,04,18,12,04,12.80
2017,04,18,12,05,12.80
2017,04,18,12,06,12.80
2017,04,18,12,07,12.90
2017,04,18,12,08,12.90
2017,04,18,12,09,12.90
2017,04,18,12,10,12.90
2017,04,18,12,11,12.90
2017,04,18,12,12,12.90
2017,04,18,12,13,12.90
2017,04,18,12,14,12.90
2017,04,18,12,15,12.90
2017,04,18,12,16,12.90
2017,04,18,12,17,12.80
2017,04,18,12,18,12.80
2017,04,18,12,19,12.80
2017,04,18,12,20,12.80
2017,04,18,12,21,12.80
2017,04,18,12,22,12.70
2017,04,18,12,23,12.70
2017,04,18,12,24,12.70
2017,04,18,12,25,12.70
2017,04,18,12,26,12.60
2017,04,18,12,27,12.60
2017,04,18,12,28,12.60
2017,04,18,12,29,12.60
2017,04,18,12,30,12.70
2017,04,18,12,31,12.70
2017,04,18,12,32,12.80
2017,04,18,12,33,12.80
2017,04,18,12,34,12.80
2017,04,18,12,35,12.80
2017,04,18,12,36,12.90
2017,04,18,12,37,13.00
2017,04,18,12,38,13.00
2017,04,18,12,39,13.00
2017,04,18,12,40,13.10
2017,04,18,12,41,13.10
2017,04,18,12,42,13.20
2017,04,18,12,43,13.30
2017,04,18,12,44,13.30
2017,04,18,12,45,13.40
2017,04,18,12,46,13.40
2017,04,18,12,47,13.50
2017,04,18,12,48,13.50
2017,04,18,12,49,13.60
2017,04,18,12,50,13.60
2017,04,18,12,51,13.60
2017,04,18,12,52,13.70
2017,04,18,12,53,13.70
2017,04,18,12,54,13.70
2017,04,18,12,55,13.70
2017,04,18,12,56,13.70
2017,04,18,12,57,13.70
2017,04,18,12,58,13.70
2017,04,18,12,59,13.70
2017,04,18,13,00,13.70
2017,04,18,13,01,13.70
2017,04,18,13,02,13.60
2017,04,18,13,03,13.60
2017,04,18,13,04,13.60
2017,04,18,13,05,13.60
2017,04,18,13,06,13.60
2017,04,18,13,07,13.60
2017,04,18,13,08,13.60
2017,04,18,13,09,13.60
2017,04,18,13,10,13.60
2017,04,18,13,11,13.60
2017,04,18,13,12,13.60
2017,04,18,13,13,13.60
2017,04,18,13,14,13.70
2017,04,18,13,15,13.70
2017,04,18,13,16,13.70
2017,04,18,13,17,13.60
2017,04,18,13,18,13.60
2017,04,18,13,19,13.60
2017,04,18,13,20,13.60
2017,04,18,13,21,13.50
2017,04,18,13,22,13.50
2017,04,18,13,23,13.60
2017,04,18,13,24,13.60
2017,04,18,13,25,13.70
2017,04,18,13,26,13.80
2017,04,18,13,27,13.90
2017,04,18,13,28,13.90
2017,04,18,13,29,14.00
2017,04,18,13,30,14.10
2017,04,18,13,31,14.20
2017,04,18,13,32,14.20
2017,04,18,13,33,14.20
2017,04,18,13,34,14.30
2017,04,18,13,35,14.20
2017,04,18,13,36,14.20
2017,04,18,13,37,14.20
2017,04,18,13,38,14.10
2017,04,18,13,39,14.10
2017,04,18,13,40,14.10
2017,04,18,13,41,14.00
2017,04,18,13,42,14.00
2017,04,18,13,43,14.00
2017,04,18,13,44,14.00
2017,04,18,13,45,14.00
2017,04,18,13,46,14.00
2017,04,18,13,47,14.00
2017,04,18,13,48,14.00
2017,04,18,13,49,14.10
2017,04,18,13,50,14.20
2017,04,18,13,51,14.20
2017,04,18,13,52,14.30
2017,04,18,13,53,14.40
2017,04,18,13,54,14.50
2017,04,18,13,55,14.50
2017,04,18,13,56,14.60
2017,04,18,13,57,14.60
2017,04,18,13,58,14.60
2017,04,18,13,59,14.60
2017,04,18,14,00,14.60
2017,04,18,14,01,14.70
2017,04,18,14,02,14.70
2017,04,18,14,03,14.80
2017,04,18,14,04,14.70
2017,04,18,14,05,14.70
2017,04,18,14,06,14.70
2017,04,18,14,07,14.60
2017,04,18,14,08,14.60
2017,04,18,14,09,14.60
2017,04,18,14,10,14.50
2017,04,18,14,11,14.50
2017,04,18,14,12,14.30
2017,04,18,14,13,14.10
2017,04,18,14,14,14.00
2017,04,18,14,15,13.90
2017,04,18,14,16,13.90
2017,04,18,14,17,13.80
2017,04,18,14,18,13.80
2017,04,18,14,19,13.80
2017,04,18,14,20,13.70
2017,04,18,14,21,13.70
2017,04,18,14,22,13.60
2017,04,18,14,23,13.40
2017,04,18,14,24,13.30
2017,04,18,14,25,13.10
2017,04,18,14,26,13.10
2017,04,18,14,27,13.20
2017,04,18,14,28,13.20
2017,04,18,14,29,13.30
2017,04,18,14,30,13.30
2017,04,18,14,31,13.40
2017,04,18,14,32,13.50
2017,04,18,14,33,13.50
2017,04,18,14,34,13.50
2017,04,18,14,35,13.50
2017,04,18,14,36,13.60
2017,04,18,14,37,13.60
2017,04,18,14,38,13.60
2017,04,18,14,39,13.70
2017,04,18,14,40,13.70
2017,04,18,14,41,13.70
2017,04,18,14,42,13.70
2017,04,18,14,43,13.70
2017,04,18,14,44,13.60
2017,04,18,14,45,13.60
2017,04,18,14,46,13.50
2017,04,18,14,47,13.50
2017,04,18,14,48,13.50
2017,04,18,14,49,13.50
2017,04,18,14,50,13.50
2017,04,18,14,51,13.50
2017,04,18,14,52,13.50
2017,04,18,14,53,13.60
2017,04,18,14,54,13.60
2017,04,18,14,55,13.70
2017,04,18,14,56,13.70
2017,04,18,14,57,13.70
2017,04,18,14,58,13.70
2017,04,18,14,59,13.80
2017,04,18,15,00,13.80
2017,04,18,15,01,13.90
2017,04,18,15,02,13.90
2017,04,18,15,03,13.90
2017,04,18,15,04,13.80
2017,04,18,15,05,13.80
2017,04,18,15,06,13.80
2017,04,18,15,07,13.80
2017,04,18,15,08,13.80
2017,04,18,15,09,13.80
2017,04,18,15,10,13.80
2017,04,18,15,11,13.80
2017,04,18,15,12,13.80
2017,04,18,15,13,13.80
2017,04,18,15,14,13.80
2017,04,18,15,15,13.80
2017,04,18,15,16,13.70
2017,04,18,15,17,13.70
2017,04,18,15,18,13.70
2017,04,18,15,19,13.60
2017,04,18,15,20,13.60
2017,04,18,15,21,13.50
2017,04,18,15,22,13.50
2017,04,18,15,23,13.50
2017,04,18,15,24,13.50
2017,04,18,15,25,13.50
2017,04,18,15,26,13.60
2017,04,18,15,27,13.60
2017,04,18,15,28,13.60
2017,04,18,15,29,13.60
2017,04,18,15,30,13.60
2017,04,18,15,31,13.60
2017,04,18,15,32,13.50
2017,04,18,15,33,13.50
2017,04,18,15,34,13.40
2017,04,18,15,35,13.40
2017,04,18,15,36,13.30
2017,04,18,15,37,13.30
2017,04,18,15,38,13.30
2017,04,18,15,39,13.20
2017,04,18,15,40,13.20
2017,04,18,15,41,13.10
2017,04,18,15,42,13.10
2017,04,18,15,43,13.00
2017,04,18,15,44,13.00
2017,04,18,15,45,12.90
2017,04,18,15,46,12.80
2017,04,18,15,47,12.80
2017,04,18,15,48,12.70
2017,04,18,15,49,12.60
2017,04,18,15,50,12.60
2017,04,18,15,51,12.50
2017,04,18,15,52,12.40
2017,04,18,15,53,12.30
2017,04,18,15,54,12.30
2017,04,18,15,55,12.20
2017,04,18,15,56,12.00
2017,04,18,15,57,12.00
2017,04,18,15,58,11.90
2017,04,18,15,59,11.80
2017,04,18,16,00,11.70
2017,04,18,16,01,11.60
2017,04,18,16,02,11.60
2017,04,18,16,03,11.50
2017,04,18,16,04,11.40
2017,04,18,16,05,11.40
2017,04,18,16,06,11.40
2017,04,18,16,07,11.40
2017,04,18,16,08,11.30
2017,04,18,16,09,11.30
2017,04,18,16,10,11.30
2017,04,18,16,11,11.30
2017,04,18,16,12,11.30
2017,04,18,16,13,11.30
2017,04,18,16,14,11.30
2017,04,18,16,15,11.30
2017,04,18,16,16,11.30
2017,04,18,16,17,11.30
2017,04,18,16,18,11.30
2017,04,18,16,19,11.30
2017,04,18,16,20,11.40
2017,04,18,16,21,11.40
2017,04,18,16,22,11.50
2017,04,18,16,23,11.60
2017,04,18,16,24,11.60
2017,04,18,16,25,11.60
2017,04,18,16,26,11.70
2017,04,18,16,27,11.70
2017,04,18,16,28,11.70
2017,04,18,16,29,11.70
2017,04,18,16,30,11.70
2017,04,18,16,31,11.70
2017,04,18,16,32,11.70
2017,04,18,16,33,11.80
2017,04,18,16,34,11.70
2017,04,18,16,35,11.80
2017,04,18,16,36,11.80
2017,04,18,16,37,11.80
2017,04,18,16,38,11.80
2017,04,18,16,39,11.80
2017,04,18,16,40,11.80
2017,04,18,16,41,11.80
2017,04,18,16,42,11.80
2017,04,18,16,43,11.80
2017,04,18,16,44,11.80
2017,04,18,16,45,11.80
2017,04,18,16,46,11.80
2017,04,18,16,47,11.80
2017,04,18,16,48,11.70
2017,04,18,16,49,11.70
2017,04,18,16,50,11.70
2017,04,18,16,51,11.70
2017,04,18,16,52,11.60
2017,04,18,16,53,11.60
2017,04,18,16,54,11.70
2017,04,18,16,55,11.70
2017,04,18,16,56,11.70
2017,04,18,16,57,11.80
2017,04,18,16,58,11.80
2017,04,18,16,59,11.80
2017,04,18,17,00,11.90
2017,04,18,17,01,12.00
2017,04,18,17,02,12.00
2017,04,18,17,03,12.10
2017,04,18,17,04,12.10
2017,04,18,17,05,12.20
2017,04,18,17,06,12.20
2017,04,18,17,07,12.30
2017,04,18,17,08,12.30
2017,04,18,17,09,12.20
2017,04,18,17,10,12.20
2017,04,18,17,11,12.10
2017,04,18,17,12,12.00
2017,04,18,17,13,12.00
2017,04,18,17,14,11.90
2017,04,18,17,15,11.90
2017,04,18,17,16,11.80
2017,04,18,17,17,11.80
2017,04,18,17,18,11.80
2017,04,18,17,19,11.80
2017,04,18,17,20,11.80
2017,04,18,17,21,11.80
2017,04,18,17,22,11.80
2017,04,18,17,23,11.80
2017,04,18,17,24,11.80
2017,04,18,17,25,11.80
2017,04,18,17,26,11.80
2017,04,18,17,27,11.80
2017,04,18,17,28,11.80
2017,04,18,17,29,11.80
2017,04,18,17,30,11.80
2017,04,18,17,31,11.80
2017,04,18,17,32,11.80
2017,04,18,17,33,11.90
2017,04,18,17,34,11.90
2017,04,18,17,35,11.90
2017,04,18,17,36,11.80
2017,04,18,17,37,11.90
2017,04,18,17,38,11.90
2017,04,18,17,39,11.90
2017,04,18,17,40,11.90